DLH85G EDDS-EDDM

Flight info

Callsign DLH85G
Flight time 0h 21m
Altitude 17000
Route ABTAL4H ABTAL L173 RIXED Y161 RIDAR Z98 WLD T104 ROKIL ROKIL1A
Aircraft A20N/M-SDE2E3FGHIRWXY/LB1

Departure

Time 2026-05-04 15:05
Airport Stuttgart Airport (EDDS)

Arrival

Time 2026-05-04 15:26
Airport Munich Airport (EDDM)
Time Latitude Longitude Altitude Speed Heading
2026-05-04 14:38 48.68899 9.19427 1308 ft 0 kts 344°
2026-05-04 14:53 48.68898 9.19427 1308 ft 0 kts 344°
2026-05-04 14:55 48.68886 9.19433 1308 ft 2 kts 344°
2026-05-04 14:55 48.68871 9.19439 1308 ft 2 kts 344°
2026-05-04 14:55 48.68857 9.19445 1307 ft 2 kts 344°
2026-05-04 14:56 48.68845 9.19450 1307 ft 0 kts 344°
2026-05-04 14:56 48.68835 9.19456 1307 ft 2 kts 318°
2026-05-04 14:56 48.68827 9.19475 1307 ft 2 kts 280°
2026-05-04 14:56 48.68827 9.19490 1306 ft 0 kts 257°
2026-05-04 14:57 48.68829 9.19501 1306 ft 0 kts 253°
2026-05-04 15:00 48.68818 9.19446 1308 ft 9 kts 254°
2026-05-04 15:00 48.68803 9.19357 1309 ft 7 kts 254°
2026-05-04 15:00 48.68782 9.19249 1311 ft 13 kts 253°
2026-05-04 15:01 48.68655 9.19184 1310 ft 14 kts 129°
2026-05-04 15:01 48.68663 9.19347 1307 ft 18 kts 73°
2026-05-04 15:01 48.68702 9.19549 1302 ft 21 kts 74°
2026-05-04 15:01 48.68745 9.19774 1295 ft 21 kts 73°
2026-05-04 15:02 48.68762 9.19923 1292 ft 14 kts 104°
2026-05-04 15:02 48.68733 9.19970 1291 ft 0 kts 162°
2026-05-04 15:03 48.68730 9.19971 1291 ft 2 kts 163°
2026-05-04 15:03 48.68692 9.19987 1291 ft 8 kts 165°
2026-05-04 15:04 48.68622 9.20014 1289 ft 10 kts 165°
2026-05-04 15:04 48.68581 9.20054 1288 ft 7 kts 89°
2026-05-04 15:04 48.68609 9.20201 1285 ft 38 kts 73°
2026-05-04 15:04 48.68767 9.21038 1264 ft 123 kts 73°
2026-05-04 15:05 48.69068 9.22622 1352 ft 177 kts 73°
2026-05-04 15:05 48.69382 9.24418 2021 ft 185 kts 74°
2026-05-04 15:05 48.69708 9.26325 2879 ft 190 kts 74°
2026-05-04 15:05 48.70046 9.28229 3720 ft 192 kts 72°
2026-05-04 15:06 48.70439 9.30208 4343 ft 206 kts 72°
2026-05-04 15:06 48.70892 9.32319 4973 ft 222 kts 71°
2026-05-04 15:06 48.71379 9.34641 5631 ft 239 kts 74°
2026-05-04 15:07 48.72307 9.39735 6973 ft 268 kts 80°
2026-05-04 15:07 48.72311 9.42600 7613 ft 280 kts 99°
2026-05-04 15:07 48.71975 9.45478 8539 ft 283 kts 103°
2026-05-04 15:07 48.71606 9.48433 9463 ft 287 kts 103°
2026-05-04 15:08 48.71266 9.51376 10335 ft 292 kts 102°
2026-05-04 15:08 48.70928 9.54485 10912 ft 307 kts 101°
2026-05-04 15:08 48.70597 9.57744 11375 ft 325 kts 101°
2026-05-04 15:08 48.70260 9.61225 11809 ft 344 kts 100°
2026-05-04 15:09 48.69912 9.64932 12196 ft 363 kts 99°
2026-05-04 15:09 48.69555 9.68789 12745 ft 374 kts 100°
2026-05-04 15:09 48.69194 9.72707 13417 ft 378 kts 99°
2026-05-04 15:10 48.68468 9.80636 13944 ft 381 kts 99°
2026-05-04 15:10 48.68107 9.84558 13948 ft 380 kts 99°
2026-05-04 15:10 48.67371 9.92509 13946 ft 381 kts 99°
2026-05-04 15:11 48.66999 9.96489 13947 ft 381 kts 99°
2026-05-04 15:11 48.66627 10.00454 13949 ft 382 kts 99°
2026-05-04 15:11 48.66256 10.04394 13945 ft 382 kts 99°
2026-05-04 15:11 48.65880 10.08379 13945 ft 382 kts 99°
2026-05-04 15:12 48.65500 10.12380 13941 ft 383 kts 99°
2026-05-04 15:12 48.65121 10.16369 13943 ft 383 kts 100°
2026-05-04 15:12 48.64740 10.20354 13943 ft 383 kts 100°
2026-05-04 15:12 48.64357 10.24343 13943 ft 383 kts 100°
2026-05-04 15:13 48.63973 10.28326 13945 ft 382 kts 100°
2026-05-04 15:13 48.63590 10.32290 13947 ft 382 kts 100°
2026-05-04 15:13 48.63205 10.36261 13949 ft 381 kts 100°
2026-05-04 15:13 48.62820 10.40221 13946 ft 381 kts 100°
2026-05-04 15:14 48.62436 10.44156 13948 ft 381 kts 100°
2026-05-04 15:14 48.62015 10.48123 13947 ft 380 kts 104°
2026-05-04 15:14 48.61131 10.51802 13944 ft 377 kts 116°
2026-05-04 15:14 48.59985 10.55377 13945 ft 377 kts 118°
2026-05-04 15:15 48.58801 10.58925 13946 ft 377 kts 118°
2026-05-04 15:15 48.57619 10.62447 13940 ft 377 kts 119°
2026-05-04 15:15 48.56443 10.65965 13946 ft 377 kts 119°
2026-05-04 15:16 48.54066 10.73089 13938 ft 377 kts 119°
2026-05-04 15:16 48.52908 10.76575 13874 ft 373 kts 119°
2026-05-04 15:16 48.50617 10.83502 12739 ft 369 kts 119°
2026-05-04 15:17 48.49479 10.86926 12122 ft 367 kts 119°
2026-05-04 15:17 48.47188 10.93769 10874 ft 363 kts 119°
2026-05-04 15:17 48.46053 10.97128 10254 ft 361 kts 119°
2026-05-04 15:18 48.44925 11.00450 9650 ft 359 kts 119°
2026-05-04 15:18 48.43779 11.03787 9038 ft 356 kts 119°
2026-05-04 15:18 48.42653 11.07016 8434 ft 342 kts 119°
2026-05-04 15:19 48.40514 11.12966 7218 ft 307 kts 119°
2026-05-04 15:19 48.39503 11.15680 6609 ft 293 kts 119°
2026-05-04 15:19 48.37530 11.20789 5401 ft 279 kts 119°
2026-05-04 15:20 48.36544 11.23289 4891 ft 280 kts 119°
2026-05-04 15:20 48.35544 11.25802 4406 ft 281 kts 119°
2026-05-04 15:20 48.34550 11.28290 4065 ft 277 kts 119°
2026-05-04 15:20 48.33564 11.30740 3998 ft 265 kts 119°
2026-05-04 15:21 48.32732 11.33175 3999 ft 263 kts 108°
2026-05-04 15:21 48.32152 11.35793 3998 ft 262 kts 105°
2026-05-04 15:21 48.31424 11.41088 3986 ft 260 kts 88°
2026-05-04 15:22 48.31583 11.43809 3982 ft 259 kts 79°
2026-05-04 15:22 48.31873 11.46461 3981 ft 259 kts 79°
2026-05-04 15:22 48.32351 11.51866 3973 ft 257 kts 82°
2026-05-04 15:23 48.32538 11.54450 3949 ft 242 kts 82°
2026-05-04 15:23 48.32713 11.56916 3774 ft 235 kts 82°
2026-05-04 15:23 48.32888 11.59344 3477 ft 234 kts 82°
2026-05-04 15:23 48.33062 11.61712 3175 ft 221 kts 82°
2026-05-04 15:24 48.33385 11.66051 2708 ft 192 kts 83°
2026-05-04 15:24 48.33672 11.69861 2201 ft 170 kts 83°
2026-05-04 15:25 48.33796 11.71569 1943 ft 161 kts 82°
2026-05-04 15:25 48.33914 11.73208 1742 ft 156 kts 82°
2026-05-04 15:25 48.34041 11.74797 1581 ft 152 kts 83°
2026-05-04 15:26 48.34251 11.77495 1487 ft 87 kts 83°
2026-05-04 15:26 48.34316 11.78165 1484 ft 41 kts 73°
2026-05-04 15:26 48.34483 11.78566 1483 ft 11 kts 53°
2026-05-04 15:27 48.34531 11.78665 1483 ft 12 kts 53°
2026-05-04 15:27 48.34631 11.78909 1481 ft 15 kts 82°
2026-05-04 15:28 48.34657 11.79240 1480 ft 17 kts 83°
2026-05-04 15:28 48.34674 11.79426 1479 ft 18 kts 86°
2026-05-04 15:28 48.34726 11.79714 1478 ft 11 kts 16°
2026-05-04 15:29 48.34810 11.79700 1478 ft 13 kts 353°
2026-05-04 15:30 48.35200 11.79566 1477 ft 15 kts 354°
2026-05-04 15:30 48.35508 11.79511 1476 ft 13 kts 353°
2026-05-04 15:31 48.35598 11.79497 1475 ft 1 kts 347°
2026-05-04 15:31 48.35603 11.79489 1475 ft 2 kts 308°
2026-05-04 15:32 48.35598 11.79326 1477 ft 5 kts 264°
2026-05-04 15:32 48.35594 11.79272 1477 ft 0 kts 263°